Year,Month,Day,Hour,Minute,Value (Times are PST for temperature in C)
2009,07,19,00,00,15.80
2009,07,19,00,01,15.80
2009,07,19,00,02,15.80
2009,07,19,00,03,15.90
2009,07,19,00,04,15.90
2009,07,19,00,05,15.90
2009,07,19,00,06,15.90
2009,07,19,00,07,15.90
2009,07,19,00,08,15.90
2009,07,19,00,09,15.90
2009,07,19,00,10,15.90
2009,07,19,00,11,15.90
2009,07,19,00,12,15.90
2009,07,19,00,13,16.00
2009,07,19,00,14,16.00
2009,07,19,00,15,16.00
2009,07,19,00,16,16.10
2009,07,19,00,17,16.10
2009,07,19,00,18,16.10
2009,07,19,00,19,16.10
2009,07,19,00,20,16.10
2009,07,19,00,21,16.10
2009,07,19,00,22,16.10
2009,07,19,00,23,16.10
2009,07,19,00,24,16.10
2009,07,19,00,25,16.10
2009,07,19,00,26,16.10
2009,07,19,00,27,16.00
2009,07,19,00,28,16.00
2009,07,19,00,29,16.00
2009,07,19,00,30,16.00
2009,07,19,00,31,16.00
2009,07,19,00,32,16.00
2009,07,19,00,33,16.00
2009,07,19,00,34,16.00
2009,07,19,00,35,16.00
2009,07,19,00,36,16.00
2009,07,19,00,37,16.00
2009,07,19,00,38,15.90
2009,07,19,00,39,15.90
2009,07,19,00,40,15.90
2009,07,19,00,41,15.90
2009,07,19,00,42,15.90
2009,07,19,00,43,15.90
2009,07,19,00,44,15.90
2009,07,19,00,45,15.90
2009,07,19,00,46,15.90
2009,07,19,00,47,15.90
2009,07,19,00,48,15.90
2009,07,19,00,49,15.90
2009,07,19,00,50,15.80
2009,07,19,00,51,15.80
2009,07,19,00,52,15.80
2009,07,19,00,53,15.80
2009,07,19,00,54,15.80
2009,07,19,00,55,15.80
2009,07,19,00,56,15.70
2009,07,19,00,57,15.70
2009,07,19,00,58,15.70
2009,07,19,00,59,15.70
2009,07,19,01,00,15.60
2009,07,19,01,01,15.60
2009,07,19,01,02,15.60
2009,07,19,01,03,15.60
2009,07,19,01,04,15.60
2009,07,19,01,05,15.60
2009,07,19,01,06,15.60
2009,07,19,01,07,15.60
2009,07,19,01,08,15.60
2009,07,19,01,09,15.60
2009,07,19,01,10,15.60
2009,07,19,01,11,15.60
2009,07,19,01,12,15.60
2009,07,19,01,13,15.60
2009,07,19,01,14,15.60
2009,07,19,01,15,15.60
2009,07,19,01,16,15.60
2009,07,19,01,17,15.60
2009,07,19,01,18,15.60
2009,07,19,01,19,15.60
2009,07,19,01,20,15.60
2009,07,19,01,21,15.60
2009,07,19,01,22,15.60
2009,07,19,01,23,15.50
2009,07,19,01,24,15.50
2009,07,19,01,25,15.40
2009,07,19,01,26,15.40
2009,07,19,01,27,15.40
2009,07,19,01,28,15.40
2009,07,19,01,29,15.40
2009,07,19,01,30,15.30
2009,07,19,01,31,15.20
2009,07,19,01,32,15.10
2009,07,19,01,33,15.00
2009,07,19,01,34,15.00
2009,07,19,01,35,15.00
2009,07,19,01,36,15.00
2009,07,19,01,37,15.00
2009,07,19,01,38,14.90
2009,07,19,01,39,14.90
2009,07,19,01,40,14.80
2009,07,19,01,41,14.80
2009,07,19,01,42,14.80
2009,07,19,01,43,14.80
2009,07,19,01,44,14.80
2009,07,19,01,45,14.70
2009,07,19,01,46,14.70
2009,07,19,01,47,14.70
2009,07,19,01,48,14.70
2009,07,19,01,49,14.60
2009,07,19,01,50,14.60
2009,07,19,01,51,14.50
2009,07,19,01,52,14.50
2009,07,19,01,53,14.50
2009,07,19,01,54,14.40
2009,07,19,01,55,14.40
2009,07,19,01,56,14.40
2009,07,19,01,57,14.30
2009,07,19,01,58,14.30
2009,07,19,01,59,14.30
2009,07,19,02,00,14.20
2009,07,19,02,01,14.20
2009,07,19,02,02,14.20
2009,07,19,02,03,14.20
2009,07,19,02,04,14.20
2009,07,19,02,05,14.20
2009,07,19,02,06,14.20
2009,07,19,02,07,14.20
2009,07,19,02,08,14.10
2009,07,19,02,09,14.10
2009,07,19,02,10,14.10
2009,07,19,02,11,14.10
2009,07,19,02,12,14.10
2009,07,19,02,13,14.10
2009,07,19,02,14,14.10
2009,07,19,02,15,14.10
2009,07,19,02,16,14.00
2009,07,19,02,17,14.00
2009,07,19,02,18,14.00
2009,07,19,02,19,14.00
2009,07,19,02,20,14.00
2009,07,19,02,21,14.00
2009,07,19,02,22,14.00
2009,07,19,02,23,14.00
2009,07,19,02,24,14.00
2009,07,19,02,25,14.00
2009,07,19,02,26,14.00
2009,07,19,02,27,13.90
2009,07,19,02,28,13.90
2009,07,19,02,29,13.90
2009,07,19,02,30,13.90
2009,07,19,02,31,13.80
2009,07,19,02,32,13.80
2009,07,19,02,33,13.80
2009,07,19,02,34,13.70
2009,07,19,02,35,13.70
2009,07,19,02,36,13.70
2009,07,19,02,37,13.60
2009,07,19,02,38,13.60
2009,07,19,02,39,13.60
2009,07,19,02,40,13.60
2009,07,19,02,41,13.60
2009,07,19,02,42,13.60
2009,07,19,02,43,13.50
2009,07,19,02,44,13.50
2009,07,19,02,45,13.50
2009,07,19,02,46,13.50
2009,07,19,02,47,13.50
2009,07,19,02,48,13.50
2009,07,19,02,49,13.50
2009,07,19,02,50,13.50
2009,07,19,02,51,13.50
2009,07,19,02,52,13.50
2009,07,19,02,53,13.40
2009,07,19,02,54,13.40
2009,07,19,02,55,13.40
2009,07,19,02,56,13.40
2009,07,19,02,57,13.40
2009,07,19,02,58,13.30
2009,07,19,02,59,13.30
2009,07,19,03,00,13.30
2009,07,19,03,01,13.30
2009,07,19,03,02,13.30
2009,07,19,03,03,13.20
2009,07,19,03,04,13.20
2009,07,19,03,05,13.20
2009,07,19,03,06,13.20
2009,07,19,03,07,13.10
2009,07,19,03,08,13.10
2009,07,19,03,09,13.10
2009,07,19,03,10,13.10
2009,07,19,03,11,13.10
2009,07,19,03,12,13.10
2009,07,19,03,13,13.10
2009,07,19,03,14,13.10
2009,07,19,03,15,13.10
2009,07,19,03,16,13.10
2009,07,19,03,17,13.10
2009,07,19,03,18,13.10
2009,07,19,03,19,13.10
2009,07,19,03,20,13.10
2009,07,19,03,21,13.10
2009,07,19,03,22,13.10
2009,07,19,03,23,13.10
2009,07,19,03,24,13.10
2009,07,19,03,25,13.00
2009,07,19,03,26,13.00
2009,07,19,03,27,13.00
2009,07,19,03,28,13.00
2009,07,19,03,29,13.00
2009,07,19,03,30,12.90
2009,07,19,03,31,12.90
2009,07,19,03,32,12.90
2009,07,19,03,33,12.90
2009,07,19,03,34,12.90
2009,07,19,03,35,12.90
2009,07,19,03,36,12.90
2009,07,19,03,37,12.90
2009,07,19,03,38,12.90
2009,07,19,03,39,12.90
2009,07,19,03,40,12.90
2009,07,19,03,41,12.90
2009,07,19,03,42,12.90
2009,07,19,03,43,12.90
2009,07,19,03,44,12.90
2009,07,19,03,45,12.80
2009,07,19,03,46,12.80
2009,07,19,03,47,12.80
2009,07,19,03,48,12.80
2009,07,19,03,49,12.80
2009,07,19,03,50,12.80
2009,07,19,03,51,12.80
2009,07,19,03,52,12.80
2009,07,19,03,53,12.80
2009,07,19,03,54,12.80
2009,07,19,03,55,12.80
2009,07,19,03,56,12.80
2009,07,19,03,57,12.80
2009,07,19,03,58,12.80
2009,07,19,03,59,12.80
2009,07,19,04,00,12.70
2009,07,19,04,01,12.70
2009,07,19,04,02,12.70
2009,07,19,04,03,12.70
2009,07,19,04,04,12.70
2009,07,19,04,05,12.70
2009,07,19,04,06,12.70
2009,07,19,04,07,12.70
2009,07,19,04,08,12.70
2009,07,19,04,09,12.70
2009,07,19,04,10,12.70
2009,07,19,04,11,12.70
2009,07,19,04,12,12.60
2009,07,19,04,13,12.60
2009,07,19,04,14,12.60
2009,07,19,04,15,12.60
2009,07,19,04,16,12.60
2009,07,19,04,17,12.60
2009,07,19,04,18,12.60
2009,07,19,04,19,12.60
2009,07,19,04,20,12.60
2009,07,19,04,21,12.50
2009,07,19,04,22,12.50
2009,07,19,04,23,12.50
2009,07,19,04,24,12.50
2009,07,19,04,25,12.40
2009,07,19,04,26,12.40
2009,07,19,04,27,12.40
2009,07,19,04,28,12.40
2009,07,19,04,29,12.40
2009,07,19,04,30,12.40
2009,07,19,04,31,12.30
2009,07,19,04,32,12.30
2009,07,19,04,33,12.30
2009,07,19,04,34,12.30
2009,07,19,04,35,12.30
2009,07,19,04,36,12.30
2009,07,19,04,37,12.30
2009,07,19,04,38,12.30
2009,07,19,04,39,12.30
2009,07,19,04,40,12.30
2009,07,19,04,41,12.30
2009,07,19,04,42,12.30
2009,07,19,04,43,12.20
2009,07,19,04,44,12.30
2009,07,19,04,45,12.20
2009,07,19,04,46,12.20
2009,07,19,04,47,12.20
2009,07,19,04,48,12.20
2009,07,19,04,49,12.20
2009,07,19,04,50,12.20
2009,07,19,04,51,12.20
2009,07,19,04,52,12.20
2009,07,19,04,53,12.20
2009,07,19,04,54,12.30
2009,07,19,04,55,12.30
2009,07,19,04,56,12.30
2009,07,19,04,57,12.30
2009,07,19,04,58,12.30
2009,07,19,04,59,12.20
2009,07,19,05,00,12.20
2009,07,19,05,01,12.20
2009,07,19,05,02,12.20
2009,07,19,05,03,12.20
2009,07,19,05,04,12.20
2009,07,19,05,05,12.10
2009,07,19,05,06,12.10
2009,07,19,05,07,12.10
2009,07,19,05,08,12.10
2009,07,19,05,09,12.10
2009,07,19,05,10,12.10
2009,07,19,05,11,12.10
2009,07,19,05,12,12.10
2009,07,19,05,13,12.10
2009,07,19,05,14,12.10
2009,07,19,05,15,12.10
2009,07,19,05,16,12.10
2009,07,19,05,17,12.10
2009,07,19,05,18,12.10
2009,07,19,05,19,12.10
2009,07,19,05,20,12.10
2009,07,19,05,21,12.10
2009,07,19,05,22,12.00
2009,07,19,05,23,12.00
2009,07,19,05,24,12.00
2009,07,19,05,25,12.00
2009,07,19,05,26,12.00
2009,07,19,05,27,12.00
2009,07,19,05,28,12.00
2009,07,19,05,29,12.00
2009,07,19,05,30,12.00
2009,07,19,05,31,12.00
2009,07,19,05,32,12.10
2009,07,19,05,33,12.10
2009,07,19,05,34,12.10
2009,07,19,05,35,12.10
2009,07,19,05,36,12.10
2009,07,19,05,37,12.10
2009,07,19,05,38,12.10
2009,07,19,05,39,12.10
2009,07,19,05,40,12.10
2009,07,19,05,41,12.10
2009,07,19,05,42,12.10
2009,07,19,05,43,12.10
2009,07,19,05,44,12.10
2009,07,19,05,45,12.10
2009,07,19,05,46,12.10
2009,07,19,05,47,12.10
2009,07,19,05,48,12.10
2009,07,19,05,49,12.10
2009,07,19,05,50,12.10
2009,07,19,05,51,12.10
2009,07,19,05,52,12.10
2009,07,19,05,53,12.10
2009,07,19,05,54,12.10
2009,07,19,05,55,12.10
2009,07,19,05,56,12.10
2009,07,19,05,57,12.10
2009,07,19,05,58,12.10
2009,07,19,05,59,12.00
2009,07,19,06,00,12.00
2009,07,19,06,01,12.00
2009,07,19,06,02,12.00
2009,07,19,06,03,12.00
2009,07,19,06,04,12.00
2009,07,19,06,05,12.00
2009,07,19,06,06,12.00
2009,07,19,06,07,12.00
2009,07,19,06,08,12.10
2009,07,19,06,09,12.10
2009,07,19,06,10,12.10
2009,07,19,06,11,12.10
2009,07,19,06,12,12.10
2009,07,19,06,13,12.10
2009,07,19,06,14,12.10
2009,07,19,06,15,12.10
2009,07,19,06,16,12.10
2009,07,19,06,17,12.10
2009,07,19,06,18,12.10
2009,07,19,06,19,12.10
2009,07,19,06,20,12.10
2009,07,19,06,21,12.20
2009,07,19,06,22,12.20
2009,07,19,06,23,12.20
2009,07,19,06,24,12.20
2009,07,19,06,25,12.20
2009,07,19,06,26,12.20
2009,07,19,06,27,12.20
2009,07,19,06,28,12.30
2009,07,19,06,29,12.30
2009,07,19,06,30,12.30
2009,07,19,06,31,12.30
2009,07,19,06,32,12.30
2009,07,19,06,33,12.30
2009,07,19,06,34,12.30
2009,07,19,06,35,12.40
2009,07,19,06,36,12.40
2009,07,19,06,37,12.40
2009,07,19,06,38,12.40
2009,07,19,06,39,12.40
2009,07,19,06,40,12.40
2009,07,19,06,41,12.40
2009,07,19,06,42,12.40
2009,07,19,06,43,12.50
2009,07,19,06,44,12.50
2009,07,19,06,45,12.50
2009,07,19,06,46,12.60
2009,07,19,06,47,12.60
2009,07,19,06,48,12.60
2009,07,19,06,49,12.60
2009,07,19,06,50,12.60
2009,07,19,06,51,12.70
2009,07,19,06,52,12.70
2009,07,19,06,53,12.70
2009,07,19,06,54,12.70
2009,07,19,06,55,12.70
2009,07,19,06,56,12.80
2009,07,19,06,57,12.80
2009,07,19,06,58,12.80
2009,07,19,06,59,12.80
2009,07,19,07,00,12.90
2009,07,19,07,01,12.90
2009,07,19,07,02,12.90
2009,07,19,07,03,13.00
2009,07,19,07,04,13.00
2009,07,19,07,05,13.00
2009,07,19,07,06,13.10
2009,07,19,07,07,13.10
2009,07,19,07,08,13.20
2009,07,19,07,09,13.30
2009,07,19,07,10,13.30
2009,07,19,07,11,13.40
2009,07,19,07,12,13.50
2009,07,19,07,13,13.50
2009,07,19,07,14,13.60
2009,07,19,07,15,13.60
2009,07,19,07,16,13.70
2009,07,19,07,17,13.80
2009,07,19,07,18,13.80
2009,07,19,07,19,13.90
2009,07,19,07,20,13.90
2009,07,19,07,21,13.90
2009,07,19,07,22,14.00
2009,07,19,07,23,14.10
2009,07,19,07,24,14.10
2009,07,19,07,25,14.10
2009,07,19,07,26,14.20
2009,07,19,07,27,14.20
2009,07,19,07,28,14.20
2009,07,19,07,29,14.30
2009,07,19,07,30,14.30
2009,07,19,07,31,14.40
2009,07,19,07,32,14.40
2009,07,19,07,33,14.50
2009,07,19,07,34,14.60
2009,07,19,07,35,14.60
2009,07,19,07,36,14.70
2009,07,19,07,37,14.80
2009,07,19,07,38,14.90
2009,07,19,07,39,15.00
2009,07,19,07,40,15.00
2009,07,19,07,41,15.00
2009,07,19,07,42,15.00
2009,07,19,07,43,15.00
2009,07,19,07,44,15.10
2009,07,19,07,45,15.10
2009,07,19,07,46,15.20
2009,07,19,07,47,15.20
2009,07,19,07,48,15.30
2009,07,19,07,49,15.30
2009,07,19,07,50,15.30
2009,07,19,07,51,15.30
2009,07,19,07,52,15.30
2009,07,19,07,53,15.30
2009,07,19,07,54,15.30
2009,07,19,07,55,15.30
2009,07,19,07,56,15.30
2009,07,19,07,57,15.30
2009,07,19,07,58,15.40
2009,07,19,07,59,15.40
2009,07,19,08,00,15.40
2009,07,19,08,01,15.50
2009,07,19,08,02,15.50
2009,07,19,08,03,15.60
2009,07,19,08,04,15.60
2009,07,19,08,05,15.70
2009,07,19,08,06,15.70
2009,07,19,08,07,15.80
2009,07,19,08,08,15.80
2009,07,19,08,09,15.80
2009,07,19,08,10,15.90
2009,07,19,08,11,15.90
2009,07,19,08,12,16.00
2009,07,19,08,13,16.00
2009,07,19,08,14,16.10
2009,07,19,08,15,16.20
2009,07,19,08,16,16.20
2009,07,19,08,17,16.40
2009,07,19,08,18,16.50
2009,07,19,08,19,16.60
2009,07,19,08,20,16.70
2009,07,19,08,21,16.80
2009,07,19,08,22,16.80
2009,07,19,08,23,16.90
2009,07,19,08,24,17.00
2009,07,19,08,25,17.10
2009,07,19,08,26,17.20
2009,07,19,08,27,17.30
2009,07,19,08,28,17.30
2009,07,19,08,29,17.40
2009,07,19,08,30,17.40
2009,07,19,08,31,17.50
2009,07,19,08,32,17.50
2009,07,19,08,33,17.60
2009,07,19,08,34,17.70
2009,07,19,08,35,17.70
2009,07,19,08,36,17.80
2009,07,19,08,37,17.80
2009,07,19,08,38,17.80
2009,07,19,08,39,17.80
2009,07,19,08,40,17.80
2009,07,19,08,41,17.80
2009,07,19,08,42,17.80
2009,07,19,08,43,17.80
2009,07,19,08,44,17.80
2009,07,19,08,45,17.80
2009,07,19,08,46,17.80
2009,07,19,08,47,17.80
2009,07,19,08,48,17.80
2009,07,19,08,49,17.80
2009,07,19,08,50,17.80
2009,07,19,08,51,17.80
2009,07,19,08,52,17.80
2009,07,19,08,53,17.80
2009,07,19,08,54,17.80
2009,07,19,08,55,17.80
2009,07,19,08,56,17.80
2009,07,19,08,57,17.80
2009,07,19,08,58,17.70
2009,07,19,08,59,17.70
2009,07,19,09,00,17.70
2009,07,19,09,01,17.70
2009,07,19,09,02,17.70
2009,07,19,09,03,17.70
2009,07,19,09,04,17.70
2009,07,19,09,05,17.70
2009,07,19,09,06,17.70
2009,07,19,09,07,17.70
2009,07,19,09,08,17.70
2009,07,19,09,09,17.70
2009,07,19,09,10,17.70
2009,07,19,09,11,17.80
2009,07,19,09,12,17.80
2009,07,19,09,13,17.80
2009,07,19,09,14,17.80
2009,07,19,09,15,17.80
2009,07,19,09,16,17.80
2009,07,19,09,17,17.90
2009,07,19,09,18,17.90
2009,07,19,09,19,18.00
2009,07,19,09,20,18.00
2009,07,19,09,21,18.10
2009,07,19,09,22,18.10
2009,07,19,09,23,18.20
2009,07,19,09,24,18.20
2009,07,19,09,25,18.30
2009,07,19,09,26,18.30
2009,07,19,09,27,18.30
2009,07,19,09,28,18.40
2009,07,19,09,29,18.40
2009,07,19,09,30,18.40
2009,07,19,09,31,18.50
2009,07,19,09,32,18.50
2009,07,19,09,33,18.50
2009,07,19,09,34,18.50
2009,07,19,09,35,18.60
2009,07,19,09,36,18.60
2009,07,19,09,37,18.70
2009,07,19,09,38,18.70
2009,07,19,09,39,18.70
2009,07,19,09,40,18.70
2009,07,19,09,41,18.70
2009,07,19,09,42,18.70
2009,07,19,09,43,18.70
2009,07,19,09,44,18.80
2009,07,19,09,45,18.80
2009,07,19,09,46,18.90
2009,07,19,09,47,19.00
2009,07,19,09,48,19.10
2009,07,19,09,49,19.20
2009,07,19,09,50,19.20
2009,07,19,09,51,19.30
2009,07,19,09,52,19.30
2009,07,19,09,53,19.40
2009,07,19,09,54,19.40
2009,07,19,09,55,19.50
2009,07,19,09,56,19.50
2009,07,19,09,57,19.60
2009,07,19,09,58,19.60
2009,07,19,09,59,19.70
2009,07,19,10,00,19.70
2009,07,19,10,01,19.70
2009,07,19,10,02,19.70
2009,07,19,10,03,19.70
2009,07,19,10,04,19.80
2009,07,19,10,05,19.80
2009,07,19,10,06,19.90
2009,07,19,10,07,19.90
2009,07,19,10,08,19.90
2009,07,19,10,09,20.00
2009,07,19,10,10,20.00
2009,07,19,10,11,20.10
2009,07,19,10,12,20.20
2009,07,19,10,13,20.20
2009,07,19,10,14,20.20
2009,07,19,10,15,20.20
2009,07,19,10,16,20.30
2009,07,19,10,17,20.20
2009,07,19,10,18,20.20
2009,07,19,10,19,20.10
2009,07,19,10,20,20.00
2009,07,19,10,21,19.90
2009,07,19,10,22,19.70
2009,07,19,10,23,19.70
2009,07,19,10,24,19.70
2009,07,19,10,25,19.80
2009,07,19,10,26,19.90
2009,07,19,10,27,19.90
2009,07,19,10,28,20.00
2009,07,19,10,29,20.10
2009,07,19,10,30,20.20
2009,07,19,10,31,20.40
2009,07,19,10,32,20.50
2009,07,19,10,33,20.70
2009,07,19,10,34,20.70
2009,07,19,10,35,20.70
2009,07,19,10,36,20.80
2009,07,19,10,37,20.80
2009,07,19,10,38,20.80
2009,07,19,10,39,20.80
2009,07,19,10,40,20.90
2009,07,19,10,41,21.00
2009,07,19,10,42,21.00
2009,07,19,10,43,21.10
2009,07,19,10,44,21.20
2009,07,19,10,45,21.30
2009,07,19,10,46,21.40
2009,07,19,10,47,21.50
2009,07,19,10,48,21.60
2009,07,19,10,49,21.50
2009,07,19,10,50,21.40
2009,07,19,10,51,21.20
2009,07,19,10,52,21.00
2009,07,19,10,53,20.90
2009,07,19,10,54,20.80
2009,07,19,10,55,20.80
2009,07,19,10,56,20.80
2009,07,19,10,57,20.80
2009,07,19,10,58,20.80
2009,07,19,10,59,20.60
2009,07,19,11,00,20.50
2009,07,19,11,01,20.40
2009,07,19,11,02,20.40
2009,07,19,11,03,20.50
2009,07,19,11,04,20.60
2009,07,19,11,05,20.70
2009,07,19,11,06,20.80
2009,07,19,11,07,21.00
2009,07,19,11,08,21.20
2009,07,19,11,09,21.40
2009,07,19,11,10,21.50
2009,07,19,11,11,21.60
2009,07,19,11,12,21.70
2009,07,19,11,13,21.70
2009,07,19,11,14,21.70
2009,07,19,11,15,21.80
2009,07,19,11,16,21.80
2009,07,19,11,17,21.90
2009,07,19,11,18,21.80
2009,07,19,11,19,21.90
2009,07,19,11,20,21.90
2009,07,19,11,21,21.90
2009,07,19,11,22,22.00
2009,07,19,11,23,22.10
2009,07,19,11,24,22.10
2009,07,19,11,25,22.20
2009,07,19,11,26,22.20
2009,07,19,11,27,22.00
2009,07,19,11,28,21.80
2009,07,19,11,29,21.70
2009,07,19,11,30,21.60
2009,07,19,11,31,21.50
2009,07,19,11,32,21.50
2009,07,19,11,33,21.50
2009,07,19,11,34,21.30
2009,07,19,11,35,21.30
2009,07,19,11,36,21.30
2009,07,19,11,37,21.50
2009,07,19,11,38,21.60
2009,07,19,11,39,21.60
2009,07,19,11,40,21.60
2009,07,19,11,41,21.60
2009,07,19,11,42,21.60
2009,07,19,11,43,21.60
2009,07,19,11,44,21.70
2009,07,19,11,45,21.60
2009,07,19,11,46,21.60
2009,07,19,11,47,21.60
2009,07,19,11,48,21.50
2009,07,19,11,49,21.40
2009,07,19,11,50,21.30
2009,07,19,11,51,21.30
2009,07,19,11,52,21.30
2009,07,19,11,53,21.30
2009,07,19,11,54,21.30
2009,07,19,11,55,21.40
2009,07,19,11,56,21.40
2009,07,19,11,57,21.40
2009,07,19,11,58,21.30
2009,07,19,11,59,21.10
2009,07,19,12,00,21.00
2009,07,19,12,01,21.00
2009,07,19,12,02,20.90
2009,07,19,12,03,21.00
2009,07,19,12,04,21.00
2009,07,19,12,05,21.10
2009,07,19,12,06,21.10
2009,07,19,12,07,21.10
2009,07,19,12,08,21.20
2009,07,19,12,09,21.30
2009,07,19,12,10,21.30
2009,07,19,12,11,21.40
2009,07,19,12,12,21.40
2009,07,19,12,13,21.40
2009,07,19,12,14,21.40
2009,07,19,12,15,21.40
2009,07,19,12,16,21.40
2009,07,19,12,17,21.40
2009,07,19,12,18,21.40
2009,07,19,12,19,21.40
2009,07,19,12,20,21.50
2009,07,19,12,21,21.50
2009,07,19,12,22,21.60
2009,07,19,12,23,21.50
2009,07,19,12,24,21.50
2009,07,19,12,25,21.40
2009,07,19,12,26,21.40
2009,07,19,12,27,21.30
2009,07,19,12,28,21.30
2009,07,19,12,29,21.10
2009,07,19,12,30,21.10
2009,07,19,12,31,21.00
2009,07,19,12,32,20.90
2009,07,19,12,33,20.80
2009,07,19,12,34,20.80
2009,07,19,12,35,20.70
2009,07,19,12,36,20.80
2009,07,19,12,37,20.80
2009,07,19,12,38,20.80
2009,07,19,12,39,20.90
2009,07,19,12,40,20.90
2009,07,19,12,41,20.80
2009,07,19,12,42,20.80
2009,07,19,12,43,20.80
2009,07,19,12,44,20.90
2009,07,19,12,45,20.90
2009,07,19,12,46,20.90
2009,07,19,12,47,20.90
2009,07,19,12,48,20.90
2009,07,19,12,49,21.00
2009,07,19,12,50,21.00
2009,07,19,12,51,21.00
2009,07,19,12,52,21.00
2009,07,19,12,53,21.10
2009,07,19,12,54,21.20
2009,07,19,12,55,21.10
2009,07,19,12,56,21.20
2009,07,19,12,57,21.40
2009,07,19,12,58,21.40
2009,07,19,12,59,21.40
2009,07,19,13,00,21.50
2009,07,19,13,01,21.50
2009,07,19,13,02,21.40
2009,07,19,13,03,21.20
2009,07,19,13,04,21.10
2009,07,19,13,05,21.10
2009,07,19,13,06,21.10
2009,07,19,13,07,21.00
2009,07,19,13,08,21.10
2009,07,19,13,09,21.10
2009,07,19,13,10,21.10
2009,07,19,13,11,21.10
2009,07,19,13,12,21.10
2009,07,19,13,13,21.10
2009,07,19,13,14,21.20
2009,07,19,13,15,21.20
2009,07,19,13,16,21.30
2009,07,19,13,17,21.30
2009,07,19,13,18,21.40
2009,07,19,13,19,21.40
2009,07,19,13,20,21.50
2009,07,19,13,21,21.50
2009,07,19,13,22,21.40
2009,07,19,13,23,21.20
2009,07,19,13,24,21.20
2009,07,19,13,25,21.20
2009,07,19,13,26,21.20
2009,07,19,13,27,21.30
2009,07,19,13,28,21.30
2009,07,19,13,29,21.30
2009,07,19,13,30,21.30
2009,07,19,13,31,21.30
2009,07,19,13,32,21.30
2009,07,19,13,33,21.30
2009,07,19,13,34,21.30
2009,07,19,13,35,21.30
2009,07,19,13,36,21.40
2009,07,19,13,37,21.50
2009,07,19,13,38,21.50
2009,07,19,13,39,21.40
2009,07,19,13,40,21.40
2009,07,19,13,41,21.50
2009,07,19,13,42,21.70
2009,07,19,13,43,21.70
2009,07,19,13,44,21.80
2009,07,19,13,45,21.90
2009,07,19,13,46,21.90
2009,07,19,13,47,21.80
2009,07,19,13,48,21.80
2009,07,19,13,49,21.80
2009,07,19,13,50,21.80
2009,07,19,13,51,21.80
2009,07,19,13,52,21.80
2009,07,19,13,53,21.80
2009,07,19,13,54,21.80
2009,07,19,13,55,21.80
2009,07,19,13,56,21.70
2009,07,19,13,57,21.60
2009,07,19,13,58,21.50
2009,07,19,13,59,21.40
2009,07,19,14,00,21.40
2009,07,19,14,01,21.50
2009,07,19,14,02,21.70
2009,07,19,14,03,21.80
2009,07,19,14,04,22.00
2009,07,19,14,05,22.20
2009,07,19,14,06,22.30
2009,07,19,14,07,22.30
2009,07,19,14,08,22.40
2009,07,19,14,09,22.40
2009,07,19,14,10,22.30
2009,07,19,14,11,22.20
2009,07,19,14,12,22.10
2009,07,19,14,13,22.00
2009,07,19,14,14,21.90
2009,07,19,14,15,21.90
2009,07,19,14,16,21.90
2009,07,19,14,17,22.00
2009,07,19,14,18,22.00
2009,07,19,14,19,22.10
2009,07,19,14,20,22.10
2009,07,19,14,21,22.20
2009,07,19,14,22,22.30
2009,07,19,14,23,22.40
2009,07,19,14,24,22.30
2009,07,19,14,25,22.30
2009,07,19,14,26,22.10
2009,07,19,14,27,22.00
2009,07,19,14,28,22.00
2009,07,19,14,29,22.00
2009,07,19,14,30,22.00
2009,07,19,14,31,22.10
2009,07,19,14,32,22.20
2009,07,19,14,33,22.30
2009,07,19,14,34,22.40
2009,07,19,14,35,22.50
2009,07,19,14,36,22.60
2009,07,19,14,37,22.70
2009,07,19,14,38,22.80
2009,07,19,14,39,22.80
2009,07,19,14,40,22.70
2009,07,19,14,41,22.80
2009,07,19,14,42,22.80
2009,07,19,14,43,22.70
2009,07,19,14,44,22.60
2009,07,19,14,45,22.60
2009,07,19,14,46,22.60
2009,07,19,14,47,22.50
2009,07,19,14,48,22.50
2009,07,19,14,49,22.50
2009,07,19,14,50,22.60
2009,07,19,14,51,22.60
2009,07,19,14,52,22.70
2009,07,19,14,53,22.80
2009,07,19,14,54,23.00
2009,07,19,14,55,23.10
2009,07,19,14,56,23.20
2009,07,19,14,57,23.30
2009,07,19,14,58,23.50
2009,07,19,14,59,23.60
2009,07,19,15,00,23.70
2009,07,19,15,01,23.80
2009,07,19,15,02,23.80
2009,07,19,15,03,23.90
2009,07,19,15,04,24.10
2009,07,19,15,05,24.10
2009,07,19,15,06,24.20
2009,07,19,15,07,24.20
2009,07,19,15,08,24.10
2009,07,19,15,09,24.10
2009,07,19,15,10,24.10
2009,07,19,15,11,24.10
2009,07,19,15,12,24.10
2009,07,19,15,13,24.10
2009,07,19,15,14,24.10
2009,07,19,15,15,24.20
2009,07,19,15,16,24.40
2009,07,19,15,17,24.50
2009,07,19,15,18,24.60
2009,07,19,15,19,24.60
2009,07,19,15,20,24.60
2009,07,19,15,21,24.70
2009,07,19,15,22,24.80
2009,07,19,15,23,24.80
2009,07,19,15,24,24.90
2009,07,19,15,25,25.00
2009,07,19,15,26,25.10
2009,07,19,15,27,25.20
2009,07,19,15,28,25.10
2009,07,19,15,29,25.00
2009,07,19,15,30,24.80
2009,07,19,15,31,24.60
2009,07,19,15,32,24.50
2009,07,19,15,33,24.50
2009,07,19,15,34,24.70
2009,07,19,15,35,24.70
2009,07,19,15,36,24.60
2009,07,19,15,37,24.50
2009,07,19,15,38,24.60
2009,07,19,15,39,24.70
2009,07,19,15,40,24.80
2009,07,19,15,41,24.80
2009,07,19,15,42,24.90
2009,07,19,15,43,25.10
2009,07,19,15,44,25.30
2009,07,19,15,45,25.40
2009,07,19,15,46,25.50
2009,07,19,15,47,25.50
2009,07,19,15,48,25.40
2009,07,19,15,49,25.20
2009,07,19,15,50,25.00
2009,07,19,15,51,24.60
2009,07,19,15,52,24.20
2009,07,19,15,53,23.80
2009,07,19,15,54,23.50
2009,07,19,15,55,23.20
2009,07,19,15,56,23.10
2009,07,19,15,57,23.00
2009,07,19,15,58,23.10
2009,07,19,15,59,23.10
2009,07,19,16,00,22.90
2009,07,19,16,01,22.70
2009,07,19,16,02,22.70
2009,07,19,16,03,22.70
2009,07,19,16,04,22.80
2009,07,19,16,05,23.00
2009,07,19,16,06,23.10
2009,07,19,16,07,23.20
2009,07,19,16,08,23.40
2009,07,19,16,09,23.60
2009,07,19,16,10,23.80
2009,07,19,16,11,23.90
2009,07,19,16,12,23.90
2009,07,19,16,13,24.00
2009,07,19,16,14,24.00
2009,07,19,16,15,23.90
2009,07,19,16,16,23.90
2009,07,19,16,17,23.80
2009,07,19,16,18,23.80
2009,07,19,16,19,23.80
2009,07,19,16,20,23.80
2009,07,19,16,21,23.70
2009,07,19,16,22,23.70
2009,07,19,16,23,23.70
2009,07,19,16,24,23.70
2009,07,19,16,25,23.80
2009,07,19,16,26,23.90
2009,07,19,16,27,23.90
2009,07,19,16,28,23.90
2009,07,19,16,29,24.00
2009,07,19,16,30,24.10
2009,07,19,16,31,24.10
2009,07,19,16,32,24.20
2009,07,19,16,33,24.30
2009,07,19,16,34,24.30
2009,07,19,16,35,24.30
2009,07,19,16,36,24.20
2009,07,19,16,37,24.10
2009,07,19,16,38,24.10
2009,07,19,16,39,24.00
2009,07,19,16,40,24.10
2009,07,19,16,41,24.00
2009,07,19,16,42,24.00
2009,07,19,16,43,23.90
2009,07,19,16,44,23.90
2009,07,19,16,45,24.00
2009,07,19,16,46,24.10
2009,07,19,16,47,24.30
2009,07,19,16,48,24.40
2009,07,19,16,49,24.50
2009,07,19,16,50,24.60
2009,07,19,16,51,24.70
2009,07,19,16,52,24.80
2009,07,19,16,53,25.00
2009,07,19,16,54,25.10
2009,07,19,16,55,25.20
2009,07,19,16,56,25.20
2009,07,19,16,57,25.30
2009,07,19,16,58,25.30
2009,07,19,16,59,25.30
2009,07,19,17,00,25.30
2009,07,19,17,01,25.20
2009,07,19,17,02,25.10
2009,07,19,17,03,25.00
2009,07,19,17,04,24.90
2009,07,19,17,05,24.70
2009,07,19,17,06,24.50
2009,07,19,17,07,24.40
2009,07,19,17,08,24.30
2009,07,19,17,09,24.20
2009,07,19,17,10,24.20
2009,07,19,17,11,24.20
2009,07,19,17,12,24.30
2009,07,19,17,13,24.40
2009,07,19,17,14,24.40
2009,07,19,17,15,24.50
2009,07,19,17,16,24.60
2009,07,19,17,17,24.60
2009,07,19,17,18,24.60
2009,07,19,17,19,24.70